Terug naar catalogus

STARLINK-4286

ActiefCommunicatieVLEO
NORAD 52990·PAYLOAD·🇺🇸 United States

Gelanceerd Jul 7, 2022 vanaf Cape Canaveral Space Force Station

Loading…

Volgende Passages (komende 24 uur)

TLE

VersSource: CelesTrak SupGP

Epoch: Sep 15, 2026, 02:45 UTC

1 52990C 22076E   26258.11506944  .00039428  00000+0  11280-2 0  2582
2 52990  53.1591 319.2438 0001301  92.4125 149.5110 15.35380297    14

Volg STARLINK-4286 in realtime met AllMySat

Download on the App Store